Location: Kernascl�den
(48.0062°N, 3.3198°W)
Time: 22:19:13
(UTC+00:00)

Cosmos 1315 Rocket - Pass Details

Date: 21 January 2021
Orbit: 530 x 567 km, 81.2° (Epoch: 03 March)

Event Time Altitude Azimuth Distance (km) Brightness Sun altitude
Rises 17:45:07 0° 346° (NNW) 2,703 6.3 -8.2°
Reaches altitude 10° 17:47:17 10° 345° (NNW) 1,811 5.4 -8.5°
Maximum altitude 17:51:15 72° 261° (W) 577 3.1 -9.2°
Drops below altitude 10° 17:55:14 10° 177° (S) 1,818 5.7 -9.8°
Sets 17:57:24 0° 175° (S) 2,713 6.5 -10.1°
